GW5799 Weather Reports


time (UTC)temp
C
wind
direction
speed
KPH
gust
KPH
rain 1hr
cm
rain 24hr
cm
rain mn
cm
humidity
%
barometer
mb
20260505041306 21 7 0.0 8.0 0.00 0.00 0.00 51 1028.4
20260505040803 21 328 8.0 9.7 0.00 0.00 0.00 49 1028.5
20260505040301 22 344 6.4 11.3 0.00 0.00 0.00 48 1028.6
20260505035757 21 149 1.6 6.4 0.00 0.00 0.00 51 1028.6
20260505035253 21 45 9.7 12.9 0.00 0.00 0.00 49 1028.7
20260505034751 21 79 3.2 8.0 0.00 0.00 0.00 49 1028.9
20260505034247 21 64 9.7 9.7 0.00 0.00 0.00 49 1029.0
20260505033744 21 353 4.8 6.4 0.00 0.00 0.00 52 1028.9
20260505033242 21 352 6.4 8.0 0.00 0.00 0.00 52 1029.1
20260505032739 21 0 4.8 6.4 0.00 0.00 0.00 51 1029.0
20260505032235 21 344 6.4 9.7 0.00 0.00 0.00 52 1029.1
20260505031733 20 15 8.0 9.7 0.00 0.00 0.00 53 1029.2
20260505031229 20 49 11.3 14.5 0.00 0.00 0.00 52 1029.2
20260505030726 20 337 4.8 8.0 0.00 0.00 0.00 52 1029.2
20260505030222 20 342 11.3 12.9 0.00 0.00 0.00 53 1029.4
20260505025718 20 40 4.8 12.9 0.00 0.00 0.00 53 1029.2
20260505025216 20 56 6.4 14.5 0.00 0.00 0.00 54 1029.3
20260505024714 20 44 4.8 8.0 0.00 0.00 0.00 54 1029.2
20260505024211 20 26 9.7 12.9 0.00 0.00 0.00 55 1029.3
20260505023708 20 98 6.4 12.9 0.00 0.00 0.00 55 1029.2
20260505023206 19 70 4.8 12.9 0.00 0.00 0.00 57 1029.2
20260505022703 19 43 4.8 6.4 0.00 0.00 0.00 57 1029.1
20260505022200 18 80 3.2 8.0 0.00 0.00 0.00 58 1029.2
20260505021656 19 46 8.0 12.9 0.00 0.00 0.00 57 1029.4
20260505021153 19 94 8.0 11.3 0.00 0.00 0.00 58 1029.3
20260505020649 18 22 4.8 11.3 0.00 0.00 0.00 59 1029.2
20260505020145 18 73 4.8 8.0 0.00 0.00 0.00 60 1029.3
20260505015642 18 85 11.3 16.1 0.00 0.00 0.00 58 1029.3
20260505015139 18 70 4.8 9.7 0.00 0.00 0.00 60 1029.4
20260505014636 18 46 3.2 8.0 0.00 0.00 0.00 61 1029.4
20260505014133 18 45 8.0 11.3 0.00 0.00 0.00 62 1029.4
20260505013630 18 100 9.7 11.3 0.00 0.00 0.00 62 1029.4
20260505013127 17 67 4.8 11.3 0.00 0.00 0.00 63 1029.3
20260505012625 17 63 4.8 12.9 0.00 0.00 0.00 64 1029.3
20260505012122 17 63 8.0 9.7 0.00 0.00 0.00 64 1029.3
20260505011618 16 75 6.4 9.7 0.00 0.00 0.00 66 1029.5
20260505011115 16 111 6.4 9.7 0.00 0.00 0.00 67 1029.4
20260505010610 16 91 4.8 9.7 0.00 0.00 0.00 68 1029.4
20260505010107 16 88 8.0 11.3 0.00 0.00 0.00 68 1029.5
20260505005603 16 76 8.0 11.3 0.00 0.00 0.00 68 1029.4
20260505005101 16 79 8.0 9.7 0.00 0.00 0.00 69 1029.4
20260505004558 16 80 6.4 6.4 0.00 0.00 0.00 69 1029.6
20260505004055 15 42 8.0 14.5 0.00 0.00 0.00 70 1029.4
20260505003552 15 64 8.0 12.9 0.00 0.00 0.00 70 1029.1
20260505003049 15 96 9.7 14.5 0.00 0.00 0.00 70 1029.1
20260505002550 15 65 8.0 11.3 0.00 0.00 0.00 70 1029.2
20260505002049 15 74 4.8 9.7 0.00 0.00 0.00 71 1029.2
20260505001545 15 101 6.4 8.0 0.00 0.00 0.00 73 1029.3
20260505001043 15 91 6.4 8.0 0.00 0.00 0.00 74 1029.2
20260505000540 14 96 8.0 8.0 0.00 0.00 0.00 75 1029.0
20260505000038 14 58 4.8 6.4 0.00 0.00 0.00 76 1028.9
20260504235534 13 80 6.4 6.4 0.00 0.00 0.00 77 1028.8
20260504235031 13 79 4.8 9.7 0.00 0.00 0.00 78 1028.7
20260504234528 13 71 4.8 8.0 0.00 0.00 0.00 79 1028.8
20260504234025 13 82 6.4 6.4 0.00 0.00 0.00 80 1028.6
20260504233520 12 61 3.2 6.4 0.00 0.00 0.00 80 1028.5
20260504233017 12 104 4.8 6.4 0.00 0.00 0.00 81 1028.6
20260504232514 12 92 3.2 6.4 0.00 0.00 0.00 82 1028.4
20260504232012 12 79 4.8 6.4 0.00 0.00 0.00 82 1028.4
20260504231508 11 69 4.8 6.4 0.00 0.00 0.00 82 1028.1
20260504231004 11 97 3.2 6.4 0.00 0.00 0.00 83 1028.2
20260504230500 11 103 4.8 6.4 0.00 0.00 0.00 83 1028.1
20260504230000 11 66 3.2 6.4 0.00 0.00 0.00 83 1028.1
20260504225456 11 29 4.8 6.4 0.00 0.00 0.00 82 1027.9
20260504224953 11 54 4.8 6.4 0.00 0.00 0.00 82 1027.8
20260504224450 11 82 4.8 9.7 0.00 0.00 0.00 82 1027.6
20260504223947 11 71 6.4 8.0 0.00 0.00 0.00 82 1027.6
20260504223443 11 83 6.4 8.0 0.00 0.00 0.00 82 1027.7
20260504222938 11 52 4.8 4.8 0.00 0.00 0.00 81 1027.7
20260504222437 12 60 4.8 4.8 0.00 0.00 0.00 81 1027.7
20260504221934 12 33 1.6 8.0 0.00 0.00 0.00 81 1027.6
20260504221431 12 70 11.3 12.9 0.00 0.00 0.00 81 1027.7
20260504220928 12 75 8.0 14.5 0.00 0.00 0.00 81 1027.6
20260504220424 12 91 12.9 12.9 0.00 0.00 0.00 80 1027.5
20260504215922 12 82 16.1 19.3 0.00 0.00 0.00 81 1027.6
20260504215418 12 88 9.7 22.5 0.00 0.00 0.00 81 1027.5
20260504214915 12 69 9.7 16.1 0.00 0.00 0.00 82 1027.3
20260504214411 12 74 11.3 25.7 0.00 0.00 0.00 82 1027.4
20260504213908 12 83 11.3 22.5 0.00 0.00 0.00 82 1027.3
20260504213404 12 81 12.9 19.3 0.00 0.00 0.00 83 1027.4
20260504212902 12 86 9.7 20.9 0.00 0.00 0.00 83 1027.3
20260504212357 12 99 12.9 17.7 0.00 0.00 0.00 84 1027.4
20260504211855 12 84 9.7 16.1 0.00 0.00 0.00 84 1027.4
20260504211351 12 89 6.4 16.1 0.00 0.00 0.00 85 1027.5
20260504210849 11 73 8.0 19.3 0.00 0.00 0.00 86 1027.6
20260504210345 11 95 11.3 16.1 0.00 0.00 0.00 86 1027.5
20260504205843 11 73 6.4 9.7 0.00 0.00 0.00 87 1027.6
20260504205341 11 79 8.0 14.5 0.00 0.00 0.00 88 1027.6
20260504204838 10 99 12.9 14.5 0.00 0.00 0.00 88 1027.7
20260504204337 10 107 4.8 6.4 0.00 0.00 0.00 88 1027.6
20260504203836 10 100 4.8 8.0 0.00 0.00 0.00 89 1027.6
20260504203332 10 91 6.4 6.4 0.00 0.00 0.00 89 1027.7
20260504202828 10 96 3.2 6.4 0.00 0.00 0.00 89 1027.6
20260504202325 10 110 4.8 8.0 0.00 0.00 0.00 90 1027.7
20260504201822 10 111 4.8 6.4 0.00 0.00 0.00 90 1027.7
20260504201319 9 126 3.2 4.8 0.00 0.00 0.00 90 1027.5
20260504200817 9 103 4.8 6.4 0.00 0.00 0.00 90 1027.6
20260504200313 8 136 3.2 4.8 0.00 0.00 0.00 90 1027.5
20260504195809 8 147 0.0 3.2 0.00 0.00 0.00 89 1027.8
20260504195305 8 155 1.6 3.2 0.00 0.00 0.00 90 1027.7
20260504194802 8 166 1.6 1.6 0.00 0.00 0.00 89 1027.8
20260504194258 8 143 1.6 3.2 0.00 0.00 0.00 89 1027.7
20260504193754 8 127 3.2 3.2 0.00 0.00 0.00 89 1027.6
20260504193252 8 126 0.0 1.6 0.00 0.00 0.00 89 1027.7
20260504192750 8 173 0.0 3.2 0.00 0.00 0.00 89 1027.7
20260504192248 8 195 3.2 3.2 0.00 0.00 0.00 89 1027.7
20260504191747 8 214 1.6 3.2 0.00 0.00 0.00 88 1027.9
20260504191243 8 175 0.0 1.6 0.00 0.00 0.00 88 1027.8
20260504190739 9 160 3.2 3.2 0.00 0.00 0.00 88 1028.0
20260504190235 9 162 3.2 4.8 0.00 0.00 0.00 88 1028.0
20260504185732 9 188 1.6 3.2 0.00 0.00 0.00 88 1027.9
20260504185229 9 181 1.6 4.8 0.00 0.00 0.00 88 1028.1
20260504184725 9 196 4.8 4.8 0.00 0.00 0.00 89 1028.1
20260504184221 9 181 1.6 3.2 0.00 0.00 0.00 88 1028.2
20260504183717 9 187 1.6 4.8 0.00 0.00 0.00 88 1028.1
20260504183214 9 203 1.6 3.2 0.00 0.00 0.00 88 1028.1
20260504182712 9 188 1.6 4.8 0.00 0.00 0.00 88 1028.3
20260504182209 9 183 3.2 3.2 0.00 0.00 0.00 88 1028.1
20260504181706 9 169 1.6 3.2 0.00 0.00 0.00 87 1027.9
20260504181204 9 177 1.6 3.2 0.00 0.00 0.00 87 1028.1
20260504180703 9 155 0.0 3.2 0.00 0.00 0.00 87 1028.0
20260504180201 10 157 0.0 1.6 0.00 0.00 0.00 87 1028.2
20260504175658 10 147 0.0 3.2 0.00 0.00 0.00 87 1028.1
20260504175154 10 132 1.6 3.2 0.00 0.00 0.00 86 1028.0
20260504174653 10 149 3.2 6.4 0.00 0.00 0.00 87 1028.1
20260504174149 10 121 4.8 4.8 0.00 0.00 0.00 87 1028.2
20260504173646 10 128 3.2 4.8 0.00 0.00 0.00 87 1028.3
20260504173143 10 119 4.8 6.4 0.00 0.00 0.00 87 1028.3
20260504172640 10 137 4.8 6.4 0.00 0.00 0.00 87 1028.3
20260504172137 10 145 4.8 6.4 0.00 0.00 0.00 87 1028.5
20260504171633 10 138 8.0 8.0 0.00 0.00 0.00 87 1028.3
20260504171130 10 130 4.8 8.0 0.00 0.00 0.00 87 1028.3
20260504170626 10 132 4.8 6.4 0.00 0.00 0.00 87 1028.4
20260504170124 9 151 3.2 4.8 0.00 0.00 0.00 86 1028.6
20260504151010 12 133 9.7 11.3 0.00 0.00 0.00 79 1028.6
20260504150507 12 127 9.7 9.7 0.00 0.00 0.00 79 1028.7
20260504140933 13 131 8.0 12.9 0.00 0.00 0.00 79 1029.1
20260504140429 13 138 9.7 11.3 0.00 0.00 0.00 78 1029.4
20260504130354 14 133 11.3 12.9 0.00 0.00 0.00 76 1028.8
20260504120317 15 142 9.7 12.9 0.00 0.00 0.00 77 1028.6
20260504110241 16 152 8.0 12.9 0.00 0.00 0.00 75 1028.5
20260504100205 16 198 6.4 8.0 0.00 0.00 0.00 74 1028.0
20260504090128 18 219 22.5 22.5 0.00 0.00 0.00 70 1027.7
20260504081558 19 218 14.5 25.7 0.00 0.00 0.00 65 1028.0
20260504081054 19 223 14.5 24.1 0.00 0.00 0.00 64 1028.1
20260504080551 19 221 20.9 29.0 0.00 0.00 0.00 63 1028.0
20260504050403 21 259 3.2 6.4 0.00 0.00 0.00 51 1028.4
20260504045900 21 357 6.4 8.0 0.00 0.00 0.00 50 1028.4